Regional Weather Roundup
Issued by NWS

Home | Current Version | Previous Version | Graphics & Text | Print | Product List | Glossary On
Versions: 1 2 3 4 5 6 7 8 9 10 11 12 13 14 15 16 17 18 19 20 21 22 23 24 25 26 27 28 29 30 31 32 33 34 35 36 37 38 39 40 41 42 43 44 45 46 47 48 49 50
000
ASUS45 KCYS 270810
RWRWY

WYOMING REGIONAL WEATHER ROUNDUP
NATIONAL WEATHER SERVICE CHEYENNE WY
100 AM MST FRI FEB 27 2015

NOTE:  "FAIR" INDICATES FEW OR NO CLOUDS BELOW 12,000 FEET
WITH NO SIGNIFICANT WEATHER AND/OR OBSTRUCTIONS TO VISIBILITY.

WYZ001-270900-
YELLOWSTONE NATIONAL PARK

CITY           SKY/WX    TMP DP  RH WIND       PRES   REMARKS
LK YELLOWSTONE   N/A     -9 -14  78 CALM      29.84F
W YELLOWSTONE  NOT AVBL

$$
WYZ002>013-054>058-071-098>099-270900-
NORTHERN WYOMING

CITY           SKY/WX    TMP DP  RH WIND       PRES   REMARKS
JACKSON        CLOUDY    12   7  79 CALM      29.87F
CODY           MOCLDY     1   0  92 S9        29.99F WCI -14
GREYBULL       CLOUDY    15   6  67 CALM      30.08F
WORLAND        CLOUDY    10   4  76 SE9       30.07F WCI  -3
SHERIDAN       FAIR      -8 -13  78 CALM      30.10F
BUFFALO        FAIR       2  -2  83 SE12      30.02F WCI -15
GILLETTE       FAIR       2  -5  72 S14       30.13F WCI -16
HULETT         FAIR       1  -6  71 W5        30.16F WCI  -8
NEWCASTLE      FAIR       1  -6  71 E8        30.22F WCI -12

$$
WYZ014>020-022>026-101>103-270900-
CENTRAL WYOMING

CITY           SKY/WX    TMP DP  RH WIND       PRES   REMARKS
BIG PINEY      FLURRIES  10   3  73 S8        29.90F WCI  -2
PINEDALE       FLURRIES  10   7  85 S8        29.90S WCI  -1
DUBOIS         LGT SNOW   1  -4  78 SW6       29.87F WCI -10
LANDER         MOCLDY     1  -5  75 W3        29.99F
RIVERTON       FAIR      -1  -5  82 N6        30.00F WCI -13
CASPER         MOCLDY    -1  -5  82 NW3       30.03F
DOUGLAS        CLOUDY     7   3  84 SE17      30.09F WCI -12

$$
WYZ021-027>030-104>119-270900-
SOUTHERN WYOMING

CITY           SKY/WX    TMP DP  RH WIND       PRES   REMARKS
EVANSTON       CLOUDY    16  13  88 E12       29.85S WCI   3
FORT BRIDGER   CLOUDY    12  11  95 NE5       29.90S WCI   4
ROCK SPRINGS   FAIR       4   0  83 E8        29.91F WCI  -9
DIXON          FAIR      12   7  79 CALM      29.90S
RAWLINS        FAIR       3  -2  79 NE9       29.91F WCI -12
SARATOGA       FAIR       0  -4  85 W3        29.88F
LARAMIE        FAIR       1  -4  79 SE20      29.88F WCI -20
CHEYENNE       LGT SNOW   4   0  83 SE15      30.01F FOG     WCI -14
TORRINGTON     CLOUDY     6   1  80 E12       30.20F WCI  -9
PINE BLUFFS    LGT SNOW   5   1  85 SE9       30.13F WCI  -9

$$


USA.gov is the U.S. government's official web portal to all federal, state and local government web resources and services.